This is the latest recevied weather packets stored in our database for station/object IU1DOF-3. If no packets are shown the sender has not sent any weather packets the latest 10 day(s).
| Time | Temp. | Humidity | Pressure | Rain* | Wind** | Luminosity | Snow |
|---|---|---|---|---|---|---|---|
| 1777536762 | 8.89° C | 99% | 1021.2 hPa | 0 mm | - | - | - |
| 1777536149 | 8.89° C | 99% | 1021.2 hPa | 0 mm | - | - | - |
| 1777536122 | 8.89° C | 99% | 1021.2 hPa | 0 mm | - | - | - |
| 1777536113 | 8.89° C | 99% | 1021.4 hPa | 0 mm | - | - | - |
| 1777535440 | 8.89° C | 99% | 1020.9 hPa | 0 mm | - | - | - |
| 1777534817 | 8.89° C | 99% | 1020.7 hPa | 0 mm | - | - | - |
| 1777534194 | 8.89° C | 99% | 1020.7 hPa | 0 mm | - | - | - |
| 1777533580 | 8.89° C | 99% | 1020.9 hPa | 0 mm | - | - | - |
| 1777532962 | 8.89° C | 99% | 1020.7 hPa | 0 mm | - | - | - |
| 1777532337 | 8.89° C | 99% | 1020.8 hPa | 1.78 mm | - | - | - |
| 1777531724 | 8.89° C | 99% | 1020.5 hPa | 0 mm | - | - | - |
| 1777531105 | 8.89° C | 99% | 1020.4 hPa | 0 mm | - | - | - |
| 1777530481 | 8.89° C | 99% | 1020.2 hPa | 1.02 mm | - | - | - |
| 1777529860 | 8.89° C | 99% | 1020.1 hPa | 0 mm | - | - | - |
| 1777529250 | 8.89° C | 99% | 1020.1 hPa | 1.78 mm | - | - | - |
| 1777528626 | 8.89° C | 99% | 1019.9 hPa | 1.02 mm | - | - | - |
| 1777528002 | 8.89° C | 99% | 1019.9 hPa | 0 mm | - | - | - |
| 1777527378 | 8.89° C | 99% | 1019.8 hPa | 0 mm | - | - | - |
| 1777526754 | 8.89° C | 99% | 1019.4 hPa | 1.78 mm | - | - | - |
| 1777526141 | 8.89° C | 99% | 1019.5 hPa | 1.02 mm | - | - | - |
| 1777525522 | 8.89° C | 99% | 1019.5 hPa | 0 mm | - | - | - |
| 1777524898 | 9.44° C | 99% | 1019.4 hPa | 1.78 mm | - | - | - |
| 1777524281 | 8.89° C | 99% | 1019 hPa | 0 mm | - | - | - |
| 1777523668 | 8.89° C | 99% | 1019 hPa | 2.79 mm | - | - | - |
| 1777523041 | 8.89° C | 99% | 1018.9 hPa | 1.78 mm | - | - | - |
* Rain latest hour (hover to see other rain measurements)
** Current wind speed in m/s (hover to see current wind gust speed)